Zurück zum Katalog

THOR BURNER 2 DEB

LostPO
NORAD 25101·DEBRIS·🇺🇸 United States

Gestartet Jun 29, 1967 von Vandenberg Space Force Base

Loading…

Nächste Überflüge (nächste 24 Stunden)

TLE

VeraltetSource: Space-Track

Epoche: Dec 17, 2013, 05:24 UTC

1 25101U 67065D   13351.22551170 -.00000095  00000-0 -59669-1 0  9991
2 25101  90.3864 295.0340 0068856  57.0312 303.7121  8.37771014550594

Verfolge THOR BURNER 2 DEB in Echtzeit mit AllMySat

Download on the App Store